This is the latest recevied weather packets stored in our database for station/object OE6PLD-13. If no packets are shown the sender has not sent any weather packets the latest 10 day(s).
| Time | Temp. | Humidity | Pressure | Rain* | Wind** | Luminosity | Snow |
|---|---|---|---|---|---|---|---|
| 1778073356 | 23.89° C | 49% | 1012.7 hPa | 0.76 mm | - | 428 W/m² | - |
| 1778073173 | 24.44° C | 48% | 1012.7 hPa | 0.76 mm | - | 286 W/m² | - |
| 1778072990 | 25° C | 48% | 1012.6 hPa | 0.76 mm | - | 536 W/m² | - |
| 1778072806 | 24.44° C | 50% | 1012.7 hPa | 0.76 mm | - | 531 W/m² | - |
| 1778072623 | 23.89° C | 50% | 1012.7 hPa | 0.76 mm | - | 452 W/m² | - |
| 1778072439 | 23.89° C | 49% | 1012.7 hPa | 0.76 mm | - | 531 W/m² | - |
| 1778072256 | 24.44° C | 48% | 1012.6 hPa | 0.76 mm | - | 566 W/m² | - |
| 1778072073 | 23.33° C | 50% | 1012.7 hPa | 0.76 mm | - | 635 W/m² | - |
| 1778071890 | 23.89° C | 51% | 1012.8 hPa | 0.76 mm | - | 203 W/m² | - |
| 1778071706 | 23.33° C | 51% | 1012.9 hPa | 0.76 mm | - | 363 W/m² | - |
| 1778071523 | 23.33° C | 50% | 1012.7 hPa | 0.76 mm | - | 193 W/m² | - |
| 1778071339 | 23.33° C | 49% | 1012.7 hPa | 0.76 mm | - | 622 W/m² | - |
| 1778071156 | 23.33° C | 48% | 1012.9 hPa | 0.76 mm | - | 183 W/m² | - |
| 1778070973 | 22.78° C | 49% | 1013 hPa | 0.76 mm | - | 646 W/m² | - |
| 1778070789 | 22.78° C | 49% | 1013 hPa | 0.76 mm | - | 625 W/m² | - |
| 1778070606 | 23.33° C | 52% | 1012.9 hPa | 0.76 mm | - | 233 W/m² | - |
| 1778070423 | 23.89° C | 52% | 1012.9 hPa | 0.76 mm | - | 250 W/m² | - |
| 1778070239 | 23.89° C | 51% | 1013.2 hPa | 0.76 mm | - | 442 W/m² | - |
| 1778070056 | 23.89° C | 50% | 1013 hPa | 0.76 mm | - | 210 W/m² | - |
| 1778069873 | 23.89° C | 48% | 1013 hPa | 0.76 mm | - | 239 W/m² | - |
| 1778069689 | 23.89° C | 49% | 1013.1 hPa | 0.76 mm | - | 610 W/m² | - |
| 1778069506 | 23.33° C | 50% | 1013.1 hPa | 0.76 mm | - | 528 W/m² | - |
| 1778069322 | 23.33° C | 50% | 1013.2 hPa | 0.76 mm | - | 282 W/m² | - |
| 1778069139 | 23.33° C | 50% | 1013 hPa | 0.76 mm | - | 216 W/m² | - |
| 1778068956 | 23.89° C | 49% | 1012.9 hPa | 0.76 mm | - | 700 W/m² | - |
* Rain latest hour (hover to see other rain measurements)
** Current wind speed in m/s (hover to see current wind gust speed)